Temp
-3 -3 -4 -4 -4 -4 -5 -4 -4 -4 -4 -5 -5 -5 -5 -5 -5 -5 -6 -6 -6 -7 -7 -7 -7 -8 -8 -8 -8 -7 -7 -7 -8 -8 -8 -8 -9 -9 -9 -9 -9 -9 -9 -9 -9 -9 -9 -10 -10
-4 -4 -4 -4 -4 -5 -4 -4 -4 -5 -5 -6 -5 -5 -5 -5 -5 -5 -6 -7 -7 -7 -7 -7 -7 -7 -8 -8 -8 -8 -8 -8 -8 -8 -9 -9 -9 -9 -9 -9 -9 -9 -9 -9 -9 -9 -9 -10 -10
-4 -4 -4 -4 -4 -5 -4 -4 -4 -5 -5 -5 -5 -5 -5 -5 -5 -5 -6 -6 -7 -7 -7 -7 -7 -8 -8 -8 -8 -8 -8 -8 -8 -8 -9 -9 -9 -9 -9 -9 -9 -9 -9 -9 -9 -9 -9 -9 -9
-4 -4 -4 -4 -4 -5 -4 -5 -5 -5 -5 -5 -5 -5 -6 -5 -5 -6 -6 -6 -7 -7 -7 -7 -7 -8 -8 -8 -8 -8 -8 -8 -8 -8 -8 -9 -9 -9 -9 -8 -8 -9 -9 -9 -9 -9 -9 -9 -9
-4 -4 -4 -4 -4 -5 -5 -5 -5 -5 -5 -5 -6 -6 -6 -6 -6 -6 -6 -6 -6 -7 -7 -7 -7 -7 -8 -8 -7 -7 -8 -7 -7 -7 -8 -8 -8 -8 -8 -8 -8 -8 -9 -9 -9 -9 -9 -9 -9
-4 -4 -4 -5 -5 -5 -5 -5 -5 -5 -5 -5 -5 -6 -6 -6 -6 -5 -6 -6 -6 -6 -7 -7 -7 -7 -7 -7 -7 -7 -7 -7 -7 -7 -7 -7 -8 -8 -8 -8 -8 -8 -8 -9 -9 -10 -10 -9 -9
-4 -4 -5 -4 -5 -5 -5 -5 -5 -5 -5 -5 -5 -6 -6 -6 -6 -6 -6 -6 -6 -6 -6 -6 -7 -7 -7 -7 -7 -7 -7 -7 -7 -7 -7 -8 -8 -8 -8 -8 -8 -9 -9 -9 -9 -10 -10 -10 -10
-4 -4 -4 -4 -5 -5 -5 -5 -5 -5 -5 -5 -6 -6 -6 -6 -6 -6 -6 -6 -6 -6 -6 -6 -6 -7 -7 -7 -7 -7 -7 -7 -7 -7 -7 -8 -8 -8 -8 -8 -9 -9 -9 -9 -9 -10 -10 -10 -10
-5 -5 -5 -5 -4 -5 -5 -5 -5 -6 -5 -5 -5 -6 -6 -5 -6 -6 -6 -6 -7 -7 -6 -6 -6 -6 -7 -7 -7 -7 -7 -7 -7 -7 -7 -8 -8 -8 -8 -8 -8 -9 -9 -9 -9 -9 -10 -10 -10
-5 -6 -5 -5 -5 -4 -5 -5 -5 -4 -5 -6 -6 -7 -6 -5 -6 -6 -6 -6 -6 -7 -6 -6 -6 -6 -6 -7 -7 -7 -7 -7 -7 -7 -7 -8 -8 -8 -8 -8 -9 -9 -9 -9 -9 -9 -9 -10 -9
-5 -5 -5 -5 -5 -5 -5 -5 -5 -5 -5 -6 -5 -6 -6 -6 -6 -6 -6 -6 -6 -6 -6 -6 -6 -6 -6 -7 -7 -7 -7 -7 -7 -7 -8 -8 -8 -8 -8 -8 -8 -8 -8 -8 -9 -9 -9 -9 -9
-5 -5 -5 -5 -6 -5 -5 -5 -4 -5 -6 -5 -6 -5 -6 -6 -6 -6 -6 -6 -6 -6 -6 -6 -6 -6 -6 -7 -7 -7 -7 -7 -7 -7 -8 -8 -8 -8 -8 -8 -8 -8 -8 -8 -8 -9 -8 -9 -9
-5 -6 -5 -6 -6 -6 -6 -6 -4 -4 -5 -5 -6 -6 -5 -5 -5 -6 -6 -6 -6 -6 -6 -6 -6 -6 -6 -6 -7 -7 -7 -7 -7 -7 -8 -8 -8 -8 -8 -8 -8 -8 -8 -8 -8 -8 -8 -8 -9
-5 -6 -6 -6 -6 -6 -6 -6 -5 -5 -5 -5 -5 -6 -6 -5 -6 -6 -6 -6 -6 -6 -6 -6 -6 -6 -6 -6 -6 -7 -7 -7 -7 -7 -8 -8 -8 -8 -8 -7 -7 -7 -8 -8 -8 -8 -8 -8 -8
-6 -6 -6 -6 -6 -6 -6 -5 -6 -5 -5 -5 -5 -6 -6 -6 -6 -5 -5 -6 -6 -6 -6 -6 -6 -6 -6 -6 -6 -6 -6 -7 -7 -7 -8 -8 -8 -8 -7 -7 -7 -7 -8 -8 -8 -8 -8 -8 -8
-6 -6 -6 -6 -6 -6 -6 -6 -6 -6 -5 -6 -5 -6 -6 -7 -6 -5 -6 -6 -6 -5 -6 -6 -6 -6 -6 -6 -6 -6 -6 -6 -7 -7 -7 -7 -7 -7 -8 -8 -7 -7 -7 -8 -8 -8 -8 -8 -8
-7 -6 -6 -6 -7 -7 -6 -6 -6 -4 -5 -6 -6 -5 -6 -6 -6 -6 -6 -5 -6 -6 -6 -6 -6 -5 -6 -6 -6 -6 -6 -6 -7 -7 -7 -7 -7 -7 -7 -7 -7 -7 -7 -8 -8 -8 -8 -8 -8
-6 -7 -7 -6 -7 -7 -6 -6 -6 -4 -5 -6 -6 -6 -6 -6 -6 -6 -5 -6 -6 -6 -6 -5 -5 -6 -6 -6 -6 -6 -6 -6 -6 -7 -7 -7 -7 -7 -7 -7 -7 -7 -7 -8 -7 -8 -8 -8 -7
-7 -7 -7 -7 -7 -7 -7 -7 -6 -5 -5 -6 -7 -6 -6 -6 -5 -6 -6 -5 -6 -6 -6 -5 -5 -5 -6 -6 -6 -6 -6 -6 -6 -7 -7 -7 -7 -7 -7 -7 -7 -7 -7 -7 -7 -7 -7 -7 -7
-7 -7 -7 -7 -7 -7 -8 -8 -7 -6 -5 -4 -6 -6 -5 -5 -5 -6 -6 -6 -6 -6 -6 -6 -6 -5 -5 -5 -6 -6 -7 -7 -7 -7 -7 -7 -6 -6 -6 -6 -7 -7 -7 -7 -7 -7 -7 -7 -7
-8 -7 -7 -7 -7 -7 -7 -8 -8 -7 -6 -6 -5 -6 -6 -6 -5 -6 -6 -6 -6 -6 -6 -6 -6 -6 -5 -6 -6 -6 -7 -7 -6 -7 -6 -7 -7 -6 -6 -6 -6 -6 -7 -7 -7 -7 -7 -7 -7
-8 -8 -8 -7 -7 -7 -7 -8 -8 -8 -7 -7 -6 -6 -7 -6 -6 -6 -6 -6 -6 -5 -6 -6 -6 -6 -6 -6 -7 -6 -6 -6 -7 -6 -6 -7 -7 -6 -6 -6 -6 -6 -6 -7 -6 -6 -7 -7 -7
-8 -8 -8 -7 -7 -7 -7 -8 -8 -8 -8 -7 -7 -6 -7 -7 -7 -7 -7 -6 -6 -5 -5 -5 -6 -6 -6 -6 -6 -6 -6 -7 -7 -7 -6 -6 -7 -6 -6 -6 -6 -6 -6 -6 -6 -6 -6 -6 -6
-9 -9 -8 -8 -7 -7 -7 -8 -8 -8 -8 -8 -7 -6 -5 -8 -7 -7 -7 -6 -6 -6 -6 -5 -5 -6 -7 -6 -6 -6 -7 -7 -7 -7 -6 -6 -6 -6 -6 -6 -5 -6 -6 -6 -6 -6 -6 -6 -6
-9 -9 -9 -9 -8 -7 -7 -8 -8 -8 -8 -8 -7 -7 -6 -6 -6 -7 -7 -6 -6 -7 -6 -6 -6 -6 -7 -7 -6 -6 -7 -6 -6 -6 -6 -6 -6 -6 -6 -6 -6 -6 -6 -6 -6 -6 -6 -6 -6
-9 -9 -9 -8 -8 -8 -8 -8 -8 -8 -8 -8 -8 -7 -7 -7 -7 -7 -7 -6 -7 -7 -7 -7 -6 -6 -7 -7 -7 -6 -7 -7 -6 -6 -6 -6 -6 -6 -6 -6 -6 -6 -6 -5 -5 -6 -6 -6 -6
-9 -9 -9 -9 -9 -9 -8 -8 -8 -8 -8 -8 -8 -7 -7 -7 -8 -8 -7 -6 -7 -7 -7 -7 -7 -7 -7 -7 -7 -6 -7 -7 -7 -7 -6 -6 -6 -6 -6 -6 -6 -6 -6 -5 -5 -5 -6 -6 -6
-9 -10 -10 -9 -9 -9 -9 -8 -8 -8 -8 -9 -9 -8 -8 -8 -8 -8 -8 -7 -6 -7 -7 -7 -7 -7 -7 -7 -7 -6 -6 -6 -7 -6 -7 -6 -6 -6 -6 -6 -6 -6 -6 -6 -5 -5 -5 -6 -6
-10 -10 -10 -10 -9 -9 -9 -8 -8 -8 -8 -9 -9 -9 -8 -8 -8 -8 -9 -8 -7 -7 -6 -7 -7 -7 -7 -7 -7 -7 -6 -6 -6 -7 -6 -7 -6 -6 -6 -6 -6 -6 -6 -6 -6 -5 -5 -5 -6
-11 -11 -10 -10 -10 -9 -9 -9 -9 -8 -8 -8 -8 -9 -8 -8 -8 -9 -9 -8 -8 -7 -6 -6 -7 -7 -7 -7 -6 -7 -6 -6 -6 -6 -6 -6 -7 -6 -6 -6 -6 -6 -6 -6 -6 -6 -5 -5 -5
Height
5889 5888 5888 5888 5889 5887 5887 5887 5890 5893 5895 5897 5897 5899 5900 5900 5899 5901 5899 5899 5900 5900 5901 5902 5903 5904 5904 5905 5906 5907 5907 5907 5907 5906 5907 5907 5906 5906 5907 5908 5908 5908 5908 5909 5909 5908 5908 5907 5909
5889 5889 5889 5888 5885 5886 5889 5890 5892 5894 5895 5896 5898 5900 5901 5901 5900 5900 5901 5901 5901 5902 5902 5903 5905 5906 5906 5906 5908 5908 5908 5907 5907 5907 5907 5907 5907 5908 5909 5909 5908 5908 5909 5909 5909 5908 5908 5908 5909
5890 5890 5891 5889 5884 5882 5888 5891 5894 5895 5896 5897 5899 5901 5902 5903 5902 5902 5903 5903 5903 5903 5903 5905 5906 5907 5908 5908 5909 5910 5909 5909 5909 5909 5908 5909 5910 5910 5910 5910 5910 5910 5909 5909 5909 5909 5908 5907 5906
5890 5892 5892 5892 5892 5891 5892 5894 5894 5895 5897 5898 5900 5902 5903 5903 5904 5904 5904 5905 5905 5906 5906 5908 5909 5910 5910 5911 5911 5912 5912 5912 5912 5911 5911 5911 5912 5912 5912 5913 5913 5912 5912 5911 5910 5908 5907 5906 5907
5891 5892 5892 5893 5894 5895 5894 5894 5895 5896 5898 5900 5901 5903 5904 5905 5905 5906 5906 5906 5907 5908 5909 5911 5912 5912 5913 5914 5914 5914 5915 5915 5916 5915 5915 5914 5914 5915 5916 5915 5914 5914 5913 5912 5911 5909 5907 5908 5909
5892 5892 5892 5893 5894 5895 5894 5894 5896 5897 5898 5899 5901 5903 5905 5905 5907 5907 5908 5909 5909 5910 5912 5913 5914 5915 5916 5916 5917 5918 5919 5919 5919 5918 5917 5917 5917 5917 5917 5917 5917 5916 5916 5914 5913 5913 5912 5909 5912
5890 5891 5892 5893 5894 5893 5894 5895 5896 5897 5899 5901 5902 5904 5906 5906 5907 5908 5908 5911 5911 5912 5913 5915 5916 5917 5918 5919 5920 5920 5921 5921 5920 5920 5920 5920 5919 5920 5920 5920 5919 5919 5918 5917 5916 5916 5917 5916 5916
5890 5891 5893 5892 5894 5894 5893 5896 5894 5896 5900 5901 5903 5904 5905 5907 5907 5908 5909 5912 5913 5915 5916 5917 5918 5919 5920 5921 5923 5923 5923 5922 5923 5922 5923 5922 5923 5922 5922 5921 5922 5921 5921 5920 5920 5919 5919 5919 5920
5889 5892 5892 5893 5893 5893 5892 5891 5892 5894 5899 5902 5904 5905 5904 5907 5908 5909 5910 5913 5915 5916 5918 5919 5920 5921 5922 5923 5924 5925 5925 5925 5925 5925 5925 5925 5925 5925 5925 5924 5924 5924 5924 5923 5922 5922 5922 5920 5921
5887 5890 5892 5894 5893 5894 5894 5892 5888 5893 5898 5902 5904 5905 5906 5907 5909 5909 5912 5914 5916 5918 5919 5921 5922 5923 5924 5925 5926 5927 5927 5927 5928 5927 5927 5927 5927 5927 5927 5927 5927 5926 5926 5926 5925 5925 5925 5925 5926
5887 5889 5893 5893 5893 5893 5893 5891 5893 5893 5898 5901 5903 5904 5907 5908 5910 5910 5913 5915 5917 5919 5921 5923 5924 5925 5926 5927 5928 5929 5929 5929 5930 5930 5930 5929 5929 5929 5928 5928 5929 5929 5929 5929 5929 5928 5929 5929 5929
5885 5888 5892 5893 5893 5892 5894 5893 5894 5891 5895 5899 5902 5904 5907 5909 5911 5910 5912 5915 5917 5920 5922 5924 5925 5927 5927 5929 5931 5932 5932 5932 5932 5931 5931 5931 5931 5931 5930 5930 5931 5931 5932 5932 5932 5932 5933 5933 5933
5884 5886 5889 5891 5892 5893 5892 5893 5894 5890 5893 5898 5902 5906 5907 5909 5913 5913 5914 5916 5919 5921 5923 5925 5927 5929 5930 5930 5932 5933 5934 5934 5934 5933 5932 5933 5933 5933 5932 5932 5933 5933 5934 5935 5936 5935 5936 5937 5937
5883 5885 5888 5890 5891 5892 5893 5893 5893 5893 5894 5898 5902 5905 5908 5910 5912 5914 5914 5917 5919 5921 5924 5926 5929 5931 5931 5932 5933 5934 5935 5935 5935 5935 5934 5934 5935 5935 5935 5934 5935 5935 5937 5938 5939 5939 5939 5940 5941
5880 5883 5885 5888 5890 5892 5893 5895 5896 5897 5896 5897 5902 5906 5908 5910 5912 5915 5916 5917 5919 5921 5924 5927 5929 5932 5934 5934 5934 5935 5937 5937 5937 5937 5936 5936 5936 5937 5937 5937 5937 5937 5938 5940 5941 5942 5942 5943 5943
5878 5881 5883 5887 5889 5890 5893 5894 5897 5897 5897 5898 5902 5905 5908 5910 5913 5916 5918 5919 5920 5921 5925 5927 5930 5932 5934 5935 5936 5936 5938 5938 5938 5938 5937 5937 5938 5939 5939 5939 5940 5940 5941 5942 5943 5944 5945 5946 5947
5874 5877 5881 5884 5886 5888 5892 5893 5895 5896 5897 5900 5902 5906 5907 5909 5912 5916 5918 5919 5919 5921 5925 5926 5929 5933 5934 5936 5937 5937 5939 5939 5939 5939 5939 5939 5940 5941 5941 5942 5942 5943 5944 5944 5945 5946 5947 5948 5950
5871 5874 5878 5880 5883 5886 5890 5892 5896 5896 5895 5898 5901 5904 5907 5908 5910 5913 5917 5918 5920 5923 5926 5928 5929 5933 5935 5937 5937 5938 5939 5940 5941 5940 5940 5941 5942 5943 5943 5944 5944 5944 5946 5946 5947 5948 5949 5950 5951
5867 5870 5874 5877 5880 5884 5888 5891 5895 5896 5896 5897 5898 5903 5905 5907 5909 5912 5916 5918 5920 5922 5926 5928 5931 5932 5934 5936 5938 5939 5939 5941 5942 5941 5942 5943 5944 5944 5945 5946 5946 5947 5948 5948 5949 5950 5951 5952 5953
5861 5866 5869 5873 5877 5882 5886 5891 5892 5895 5896 5897 5898 5902 5904 5905 5908 5912 5915 5917 5918 5921 5924 5927 5930 5933 5935 5936 5939 5939 5940 5941 5943 5942 5944 5944 5946 5947 5946 5947 5948 5949 5950 5951 5951 5952 5954 5955 5956
5857 5862 5866 5871 5874 5879 5884 5889 5892 5895 5897 5899 5898 5899 5901 5904 5906 5910 5914 5916 5918 5920 5924 5926 5929 5933 5935 5936 5937 5939 5940 5942 5943 5944 5946 5947 5948 5949 5949 5948 5949 5951 5952 5953 5953 5954 5955 5957 5959
5853 5857 5860 5866 5871 5877 5882 5887 5890 5893 5896 5897 5898 5899 5900 5903 5905 5909 5912 5916 5918 5919 5922 5924 5928 5932 5935 5936 5937 5938 5941 5943 5944 5945 5946 5949 5950 5950 5950 5950 5950 5952 5954 5954 5955 5956 5957 5959 5961
5848 5852 5855 5860 5867 5874 5879 5884 5886 5888 5889 5890 5892 5895 5898 5900 5902 5905 5909 5913 5915 5919 5921 5924 5925 5930 5933 5935 5937 5938 5940 5942 5944 5945 5948 5950 5951 5952 5951 5952 5953 5954 5955 5956 5956 5957 5959 5960 5962
5842 5847 5851 5857 5863 5870 5875 5879 5881 5883 5886 5887 5890 5893 5896 5898 5900 5901 5903 5907 5911 5916 5918 5921 5925 5928 5931 5933 5936 5939 5940 5941 5943 5945 5947 5952 5953 5952 5953 5954 5956 5956 5957 5958 5959 5959 5960 5961 5963
5838 5843 5847 5853 5858 5864 5870 5874 5876 5880 5883 5886 5888 5891 5894 5896 5896 5897 5901 5905 5910 5915 5918 5919 5922 5926 5928 5930 5933 5938 5939 5940 5943 5945 5946 5949 5953 5954 5954 5956 5957 5958 5958 5959 5960 5960 5961 5963 5964
5833 5839 5843 5846 5854 5861 5866 5868 5871 5876 5879 5883 5886 5889 5892 5893 5895 5896 5897 5901 5907 5911 5915 5918 5921 5922 5925 5928 5931 5935 5939 5940 5941 5944 5946 5948 5951 5955 5956 5957 5959 5959 5959 5960 5961 5961 5961 5963 5965
5827 5832 5838 5842 5850 5856 5858 5862 5868 5871 5875 5880 5883 5887 5889 5891 5894 5896 5899 5901 5903 5908 5911 5914 5917 5921 5923 5925 5928 5934 5938 5940 5941 5942 5944 5946 5948 5952 5956 5957 5959 5959 5960 5960 5961 5961 5962 5963 5965
5821 5827 5832 5838 5842 5847 5850 5857 5860 5867 5870 5874 5879 5883 5887 5889 5890 5894 5897 5899 5901 5903 5906 5910 5912 5916 5919 5923 5926 5928 5935 5938 5940 5942 5944 5945 5946 5948 5952 5956 5958 5958 5959 5960 5961 5962 5962 5963 5965
5814 5819 5826 5832 5836 5839 5846 5851 5858 5862 5866 5870 5875 5879 5883 5887 5887 5888 5891 5896 5898 5901 5903 5905 5909 5912 5915 5919 5923 5926 5929 5934 5937 5940 5943 5944 5946 5946 5948 5952 5956 5958 5959 5960 5961 5962 5962 5963 5964
5808 5814 5819 5824 5830 5833 5839 5846 5851 5857 5861 5865 5870 5874 5879 5882 5884 5886 5888 5891 5894 5896 5899 5902 5904 5908 5911 5913 5917 5920 5923 5928 5933 5936 5938 5941 5944 5946 5947 5949 5953 5956 5958 5959 5960 5961 5962 5962 5963
Wind_Speed
3 3 6 5 2 7 16 21 18 17 16 14 14 13 13 14 13 13 13 10 9 11 12 10 9 10 11 13 11 10 11 11 10 9 8 7 7 6 6 7 6 6 4 4 6 5 6 7 8
4 5 7 10 10 1 17 19 19 16 15 13 15 13 12 13 13 13 13 12 10 10 13 10 10 12 13 13 12 11 10 11 9 8 8 7 6 6 5 5 6 5 4 4 5 5 7 7 7
5 4 10 15 12 15 22 20 17 14 13 16 16 14 14 14 13 13 12 14 11 11 14 12 13 14 14 13 11 11 9 9 8 8 7 7 7 6 7 7 8 6 5 4 3 5 7 7 10
4 3 6 12 13 20 20 17 16 12 11 9 16 14 15 13 12 12 13 14 14 13 16 14 15 14 14 12 12 10 11 12 11 11 10 10 10 10 10 11 10 8 7 6 4 4 8 14 17
4 3 5 6 5 17 19 18 16 11 13 12 12 13 14 12 12 11 12 13 15 16 17 15 14 13 13 14 14 14 14 14 16 16 15 15 14 15 14 12 10 10 8 6 5 2 1 13 14
5 3 4 5 4 9 16 18 15 14 13 14 12 14 13 12 11 12 12 12 13 16 18 16 15 15 15 15 16 16 16 17 18 18 17 16 16 14 13 12 11 10 9 9 9 13 17 16 20
7 2 5 1 1 8 17 16 16 15 12 13 14 16 14 13 11 12 12 11 14 13 17 17 17 18 18 16 17 17 18 20 20 19 18 18 17 14 14 14 12 11 10 10 12 13 15 18 19
4 5 2 2 1 9 15 13 16 17 14 16 17 17 16 15 12 13 13 11 13 13 15 16 17 17 17 16 17 19 19 20 19 19 19 19 18 15 15 14 15 13 12 12 13 13 12 16 16
6 4 3 4 3 2 15 5 14 21 16 16 14 10 12 17 14 14 15 13 13 13 15 15 16 17 16 16 18 18 18 18 18 18 18 18 17 16 16 15 15 15 14 14 12 14 13 12 17
8 4 5 2 1 7 6 14 14 20 22 19 16 12 7 16 16 15 15 14 14 13 15 16 15 16 16 16 17 17 16 16 16 16 15 15 16 16 15 13 13 14 14 14 13 14 14 14 17
11 11 3 5 3 2 8 6 4 11 21 18 16 17 13 16 17 16 14 12 12 14 15 16 14 15 16 16 15 14 14 15 15 13 13 12 14 14 15 13 13 14 14 14 14 15 14 15 17
14 11 7 7 2 2 4 11 8 10 25 20 17 9 15 16 18 18 18 16 13 15 14 16 15 13 16 16 14 12 11 12 11 11 11 11 11 12 14 14 13 14 15 14 15 15 16 17 19
14 10 5 3 5 2 6 10 5 6 28 19 15 12 4 14 16 16 16 16 14 15 16 16 15 13 14 15 13 11 10 9 8 9 10 10 10 10 14 13 13 15 14 13 14 15 15 16 16
16 13 8 7 6 5 1 10 7 7 27 21 17 15 11 12 19 17 20 17 16 15 17 16 15 13 13 13 13 11 10 8 10 9 10 10 10 12 13 12 12 15 16 14 15 15 14 16 14
20 17 12 9 7 6 4 0 3 6 18 18 16 11 14 12 18 16 18 19 17 16 18 17 15 14 13 13 13 12 10 7 9 11 12 12 14 15 15 12 12 13 15 16 14 14 14 15 14
21 19 18 12 10 8 7 5 2 2 7 16 13 12 14 15 15 17 16 18 18 16 17 18 16 15 14 13 11 11 9 8 10 11 13 12 12 14 14 14 12 12 14 15 15 15 14 13 12
20 22 20 17 14 12 11 9 6 2 5 14 14 13 15 14 14 17 17 18 16 17 18 20 19 16 16 11 10 11 9 8 10 13 13 11 11 12 12 12 13 12 14 14 15 15 15 13 12
22 21 21 20 18 15 13 10 6 6 3 19 18 14 12 14 17 20 18 17 16 14 16 19 20 18 15 10 8 9 9 10 10 12 13 12 12 11 12 12 15 14 16 14 15 15 15 14 14
29 25 22 23 20 19 14 13 10 6 6 16 19 11 12 14 15 19 19 17 16 15 16 20 20 20 20 14 10 9 10 10 12 13 12 11 13 12 13 13 13 15 14 14 15 16 16 16 15
31 29 27 25 22 20 17 13 12 8 6 5 14 13 6 9 12 15 17 19 19 20 18 20 21 20 18 14 10 11 10 11 14 15 13 11 12 12 13 13 14 13 13 14 15 16 16 16 15
29 30 30 29 25 21 20 16 15 12 10 10 17 17 16 13 14 16 17 23 21 19 20 21 23 21 18 16 13 12 12 12 15 15 15 12 13 12 13 13 13 13 13 13 16 16 15 14 14
27 28 31 31 29 24 21 20 18 18 18 16 19 18 17 14 13 14 16 20 23 24 23 22 23 22 18 17 16 14 11 12 14 17 17 14 12 12 13 13 13 12 10 11 14 16 15 13 13
27 28 30 31 29 27 23 20 22 23 23 24 25 23 15 21 20 17 17 18 23 21 22 24 26 22 19 19 16 15 13 15 15 17 17 16 14 13 14 13 12 11 10 11 11 13 15 14 13
32 30 29 29 28 28 27 24 24 25 26 29 26 23 26 24 24 25 24 24 22 20 21 23 25 25 22 20 16 15 15 16 17 18 18 17 16 14 13 12 12 13 11 9 9 11 14 15 14
31 32 32 31 30 28 26 29 28 24 24 27 25 22 19 19 21 30 25 21 21 18 20 21 24 26 25 24 19 18 17 18 17 18 18 18 15 14 13 10 9 11 13 11 10 10 11 14 16
32 31 33 35 30 26 24 29 30 27 24 24 22 18 19 16 14 27 26 26 24 22 21 22 24 27 27 24 22 20 19 19 20 19 18 17 15 13 13 12 8 7 10 11 11 11 12 12 14
34 34 34 33 29 28 32 30 29 29 27 28 26 21 16 13 13 22 23 22 22 23 24 24 23 25 29 28 24 21 21 21 22 21 20 19 17 14 12 11 8 6 6 8 9 11 11 13 14
35 35 37 34 34 35 35 32 32 29 29 27 26 25 20 14 23 19 18 21 23 25 26 27 29 27 28 32 30 25 24 23 22 22 21 20 19 18 15 12 10 8 6 7 7 8 11 13 15
37 38 37 37 37 37 35 33 29 29 30 30 29 29 24 22 20 18 19 20 25 26 28 29 30 31 30 30 34 30 27 26 24 23 23 21 20 19 18 16 13 10 10 9 9 7 8 10 12
37 38 38 38 39 38 36 33 32 30 29 31 32 32 29 26 26 21 18 21 25 30 31 30 30 34 33 33 33 35 32 28 26 24 25 23 21 21 20 18 15 13 13 11 11 9 8 7 8
Wind_Direction
54 28 45 6 237 115 122 126 131 125 120 89 104 97 90 81 82 88 88 83 85 96 106 107 103 104 109 107 111 102 92 83 73 66 61 67 70 80 92 98 101 104 104 102 113 123 138 158 156
76 56 39 48 334 146 151 136 138 132 133 122 121 104 92 84 81 80 97 94 82 100 103 102 103 105 109 109 107 96 78 64 51 44 51 56 60 74 76 88 96 102 112 108 108 112 136 143 151
93 64 62 45 38 153 141 140 143 139 130 130 133 110 97 86 79 85 102 98 96 105 103 106 104 100 100 101 100 87 74 67 56 57 71 81 90 92 95 93 88 95 96 106 112 127 145 145 162
115 84 63 62 92 116 135 137 137 147 148 148 135 111 102 90 79 90 109 103 108 114 108 111 105 103 103 102 97 89 79 76 70 78 86 97 103 105 106 99 101 97 96 97 114 156 165 141 141
135 108 64 57 110 155 146 142 148 150 157 136 127 113 103 94 93 95 109 107 115 119 112 112 106 106 105 103 95 87 82 82 81 84 88 97 99 99 99 97 90 89 89 85 84 44 159 148 147
162 131 73 85 140 171 170 157 156 152 154 150 139 127 109 103 101 104 109 107 112 120 117 116 116 110 108 106 101 97 92 90 90 90 91 95 95 95 95 90 83 80 81 83 81 77 68 77 129
166 174 114 176 283 216 169 166 167 162 171 162 161 137 121 116 105 108 111 107 113 121 121 122 118 117 115 109 105 102 96 92 89 90 93 93 89 92 90 91 86 77 78 86 89 91 91 90 95
190 215 35 258 9 309 183 184 178 166 162 157 155 147 135 135 113 118 116 110 114 121 124 120 118 119 117 113 107 106 100 96 92 87 91 89 88 93 90 89 89 86 79 75 88 95 103 103 103
196 132 115 99 258 149 208 216 201 151 154 160 146 158 155 151 127 127 124 121 120 123 127 125 123 122 120 117 110 107 98 91 84 81 81 88 90 97 91 89 89 87 79 75 76 87 104 115 110
208 172 211 213 278 16 222 279 221 160 155 157 149 150 168 156 138 132 133 129 129 132 128 128 127 122 120 120 118 111 99 87 75 71 76 84 87 87 87 92 83 91 88 81 81 87 94 96 93
226 216 252 221 279 333 23 280 325 214 164 166 168 155 161 151 144 133 131 125 133 138 133 133 131 127 125 122 120 110 101 86 72 71 66 72 83 86 82 86 100 98 95 91 86 84 91 96 94
234 238 236 209 183 44 357 350 330 191 164 171 165 166 161 156 159 147 145 139 139 144 141 142 139 135 135 134 129 122 104 92 76 74 68 58 73 87 97 98 104 98 97 101 101 96 95 99 101
220 234 240 206 232 335 11 352 339 116 167 177 166 168 170 164 161 143 142 142 147 149 148 149 148 142 140 142 134 126 111 91 89 70 70 73 78 105 101 103 104 103 104 106 108 106 105 102 103
210 221 228 213 209 194 336 328 54 113 171 177 178 163 177 168 168 162 151 151 153 154 152 156 157 151 144 136 132 127 116 94 84 93 80 85 91 106 112 108 106 106 111 108 113 111 110 106 108
215 221 219 218 217 220 267 1 128 151 202 161 156 168 165 181 179 175 161 159 161 158 157 161 160 153 148 139 136 135 133 111 99 97 94 91 98 106 114 115 104 102 110 106 116 116 112 107 107
222 219 223 216 221 214 244 248 195 27 205 170 160 160 169 194 176 174 170 166 164 160 163 163 165 157 156 150 145 144 136 112 110 103 103 101 106 110 116 120 117 110 111 111 119 126 121 115 115
219 220 220 219 216 217 209 241 246 173 190 170 172 173 175 192 178 176 181 174 167 163 172 169 168 163 165 154 144 141 142 124 115 112 110 108 116 120 122 124 129 121 114 118 122 126 127 128 121
217 217 215 218 216 211 221 228 218 222 231 200 187 178 182 187 184 181 187 174 174 171 180 178 170 164 167 159 154 149 140 134 124 116 111 113 113 121 127 127 125 125 124 130 126 125 128 127 122
216 215 211 214 214 212 212 223 241 247 171 186 154 175 186 196 191 186 185 182 178 174 185 183 175 169 173 171 157 154 145 135 134 124 120 118 115 115 120 117 118 121 128 133 128 126 127 126 127
211 214 213 215 211 208 207 214 233 218 226 196 177 192 211 222 206 196 186 187 191 181 186 189 181 180 181 170 156 154 154 148 140 130 130 126 124 121 122 119 114 116 125 129 131 128 128 128 131
208 212 216 216 214 204 203 196 194 191 183 200 186 188 202 209 217 204 193 193 197 193 191 191 185 189 180 175 167 173 169 164 148 141 139 141 135 129 124 123 116 115 124 135 137 135 138 139 141
209 212 218 217 214 203 195 198 188 182 191 199 203 204 200 192 218 226 216 198 198 200 200 190 191 190 184 186 182 184 174 164 154 148 147 156 145 139 126 125 126 124 129 129 140 146 150 154 151
209 210 216 217 215 206 195 193 190 199 194 199 209 217 184 192 195 211 220 218 216 203 201 202 189 192 191 192 198 182 169 165 166 158 156 159 152 148 132 126 131 135 138 135 132 146 156 158 161
210 213 217 222 220 211 199 199 200 201 208 213 211 219 223 198 205 215 214 215 219 215 204 209 197 190 196 195 198 187 174 175 174 170 166 171 163 153 141 136 138 143 146 148 148 142 151 159 164
211 212 217 219 218 216 202 205 206 207 215 218 219 217 208 221 220 207 212 220 226 224 213 207 206 197 198 197 196 192 188 182 182 177 175 175 170 164 155 152 145 149 149 161 164 156 148 159 163
212 211 219 224 223 216 210 210 210 211 213 212 221 221 208 207 218 210 200 209 213 212 212 208 209 206 204 203 200 195 198 195 184 188 184 180 177 179 165 162 163 157 149 155 163 165 160 165 169
214 213 216 223 222 218 216 216 211 213 216 219 229 224 209 214 218 223 216 214 204 213 217 204 208 211 210 210 205 203 203 209 197 193 194 185 182 182 179 182 177 173 160 149 163 174 175 175 176
212 213 214 220 221 219 222 221 220 217 220 220 222 223 224 219 191 200 221 226 218 209 210 208 206 206 210 213 212 206 210 214 212 201 203 201 192 183 183 195 201 194 190 187 173 174 177 184 186
210 212 214 218 223 226 228 228 225 221 223 224 220 225 228 225 215 196 207 216 224 219 214 209 209 211 211 214 215 213 210 218 215 212 210 207 207 197 191 196 209 214 206 202 202 192 177 184 194
214 213 216 219 224 228 230 230 231 226 226 227 228 229 228 225 226 222 231 232 223 223 221 217 212 213 213 215 218 216 215 215 220 219 218 215 214 210 206 205 211 218 220 210 214 214 204 184 185